Regional Weather Roundup
Issued by NWS Green Bay, WI

Home | Current Version | Previous Version | Graphics & Text | Print | Product List | Glossary Off
Versions: 1 2 3 4 5 6 7 8 9 10 11 12 13 14 15 16 17 18 19 20 21 22 23 24 25 26 27 28 29 30 31 32 33 34 35 36 37 38 39 40 41 42 43 44 45 46 47 48 49 50

000
ASUS43 KGRB 202211
RWRGRB

NORTH-CENTRAL AND NORTHEAST WISCONSIN REGIONAL WEATHER ROUNDUP
NATIONAL WEATHER SERVICE GREEN BAY WI
400 PM CST FRI JAN 20 2017

WIZ005-009-010>012-018-019-202300-
NORTH CENTRAL WISCONSIN

CITY           SKY/WX    TMP DP  RH WIND       PRES   REMARKS
IRONWOOD       RAIN      37  36  96 SE6       29.63R FOG
MANITOWISH WTR LGT RAIN  34  34 100 E3        29.62S
ARBOR VITAE    LGT SNOW  37  35  95 CALM      29.62S
EAGLE RIVER    RAIN      34  34 100 CALM      29.62S
LAND O LAKES   MIX PCPN  35  35  98 CALM      29.64S
RHINELANDER    LGT RAIN  34  33  96 E8        29.61F FOG
PHILLIPS       DRIZZLE   35  35  99 E7        29.59F
ANTIGO         LGT RAIN  33  33 100 E5        29.62F
TOMAHAWK       LGT RAIN  33  32  96 E5        29.61F
MERRILL        LGT RAIN  34  34 100 E3          N/A
$$

WIZ013-073-202300-
NORTHEAST WISCONSIN

CITY           SKY/WX    TMP DP  RH WIND       PRES   REMARKS
IRON MOUNTAIN  LGT SNOW  33  30  88 CALM      29.65S VSB 1
MARINETTE      NOT AVBL
OCONTO         CLOUDY    33  33  98 N7        29.64F
$$

WIZ017-030-035>037-045-202300-
CENTRAL WISCONSIN

CITY           SKY/WX    TMP DP  RH WIND       PRES   REMARKS
MEDFORD        CLOUDY    34  33  97 SE5       29.60R FOG
WAUSAU         CLOUDY    34  33  96 E6        29.60F
MOSINEE        LGT RAIN  34  34 100 E6        29.62F FOG
MARSHFIELD     CLOUDY    34  33  96 SE8       29.60R FOG
WISC RAPIDS    CLOUDY    35  35 100 SE6       29.63S FOG
STEVENS POINT  CLOUDY    32  32 100 E6        29.64R FOG
WAUPACA        CLOUDY    38  35  90 CALM      29.64S FOG
SHAWANO        CLOUDY    36  34  94 NE5       29.65S
CLINTONVILLE   CLOUDY    34  34 100 E5        29.63F FOG
WAUTOMA        CLOUDY    36  35  96 SE5       29.65R FOG
$$

WIZ038-039-048-051-202300-
FOX VALLEY

CITY           SKY/WX    TMP DP  RH WIND       PRES   REMARKS
NWS GREEN BAY  CLOUDY    35  35 100 NE13      29.64S FOG
APPLETON       FOG       36  36 100 NE7       29.61F VSB 1/2
OSHKOSH        CLOUDY    35  34  96 E3        29.63R FOG
FOND DU LAC    CLOUDY    38  33  82 E5        29.63R
$$

WIZ022-050-052-202300-
EAST CENTRAL WISCONSIN

CITY           SKY/WX    TMP DP  RH WIND       PRES   REMARKS
EPHRAIM        MIX PCPN  32  32 100 N9        29.65F VSB<1/4
WASHINGTON ISL MIX PCPN  32  32 100 N6        29.67R
STURGEON BAY   LGT RAIN  33  33 100 N8        29.65S FOG
MANITOWOC      CLOUDY    37  35  92 NE3       29.65F FOG
SHEBOYGAN      CLOUDY    36  34  92 NE5       29.64F FOG
$$

LMZ563-521-522-541>543-202300-
LAKESHORE

STATION/POSITION TIME  TEMP    WIND        PRES    VSBY  WAVE
                       AIR SEA DIR/SP/G                  HT/PER
                 (UTC) (F)     (DEG/KT/KT) (MB)    (MI)  (FT/S)
SHEBOYGAN LKSHOR 2200   34     360/  5/  5 1004.3R
KEWAUNEE LKSHORE 2148   36      40/  2/  6 1004.0R
NORTHPORT PIER   2140   32     330/  6/  7 1005.1S
SISTER BAY LKSHO 2120   32     360/  9/  9   N/A
$$



USA.gov is the U.S. government's official web portal to all federal, state and local government web resources and services.